{"data":{"norad_id":66867,"epoch":"2026-05-24T17:57:47.103840Z","epoch_age_seconds":86842,"freshness":"FRESH","line1":"1 66867U 25281V   26144.74846185  .00013077  00000+0  48377-3 0  9990","line2":"2 66867  42.9989 274.2886 0000664 277.8421  82.2355 15.27588793 27807","mean_motion":15.27588793,"eccentricity":6.64e-5,"inclination_deg":42.9989,"raan_deg":274.2886,"arg_perigee_deg":277.8421,"mean_anomaly_deg":82.2355,"bstar":0.00048377,"rev_number":2780,"period_min":94.266206101972,"perigee_km":482.56718575217,"apogee_km":483.4783477692,"semimajor_km":6861.1597667607,"source":"CELESTRAK","updated_at":"2026-05-25T13:38:21.344458Z"}}